Content
SEND FEEDBACK

Daily
Averages
Monthly
Summary
United States of America

ROCK HILL, NEW YORK


Home > North America > United States > New York
Elevation: 384 meters     Latitude: 41 35N     Longitude: 074 37W

WEATHER
 
SELECT A DAY
Number of Records: 444,187;   Date Range: 1/1/95 - 9/21/14
 
SHARE

PRINT THIS DATA

[ ← Previous Day ]
WEATHER ALMANAC - 6 MAY, 2014
[ Next Day → ]
[ °F ]   °C
Weather ElementAverageHighLow
Temperature10.6 °C15 °C (3:55 pm)5 °C (2:15 am)
Dewpoint-2.1 °C1 °C (10:15 am)-4 °C (4:55 pm)
Humidity42.9 %61 % (2:15 am)29 % (4:35 pm)
Barometer1015.2 hPa1019.6 hPa (11:35 pm)1012.9 hPa (2:55 am)
Wind Speed16.4 km/h31.5 km/h (3:35 pm)
Wind Gust46.3 km/h (4:35 pm)
Weather ElementAverage
Visibility16.1 km
Wind DirectionWNW (293.2 °)

Weather ElementTotal
Precipitation---
Heating Degree Days8.3 (Base 18.3)
Averaged from 57 records on 6 May, 2014
WEATHER CONDITIONS BREAKOUT
WIND DIRECTION BREAKOUT
WEATHER BY HOUR - 6 MAY, 2014
[ °F ]   °C
Local TimeTemperatureDewpointHumidityBarometerVisibilityWind DirectionWind SpeedGust SpeedPrecipitationEventsConditions
12:35 AM6 °C-3 °C53 %1013.5 hPa16.1 kmNW (320°)5.6 km/hScattered Clouds
12:55 AM6 °C-3 °C53 %1013.5 hPa16.1 kmWNW (290°)7.4 km/hOvercast
1:15 AM6 °C-3 °C53 %1013.5 hPa16.1 kmWNW (300°)9.3 km/hOvercast
1:35 AM6 °C-2 °C57 %1013.5 hPa16.1 kmNW (320°)9.3 km/hOvercast
1:55 AM6 °C-2 °C57 %1013.2 hPa16.1 kmCalmOvercast
2:15 AM5 °C-2 °C61 %1013.5 hPa16.1 kmNNW (330°)7.4 km/hOvercast
2:35 AM6 °C-2 °C57 %1013.2 hPa16.1 kmCalmOvercast
2:55 AM5 °C-2 °C61 %1012.9 hPa16.1 kmCalmScattered Clouds
3:15 AM6 °C-2 °C57 %1012.9 hPa16.1 kmNorth (360°)5.6 km/hClear
3:35 AM6 °C-2 °C57 %1012.9 hPa16.1 kmNorth (360°)7.4 km/hClear
7:55 AM6 °C-1 °C61 %1014.6 hPa16.1 kmCalmMostly Cloudy
8:15 AM7 °C0 °C61 %1014.6 hPa16.1 kmCalmScattered Clouds
8:35 AM7 °C-1 °C57 %1014.6 hPa16.1 kmWest (280°)7.4 km/hPartly Cloudy
8:55 AM8 °C-1 °C53 %1014.6 hPa16.1 kmWest (280°)9.3 km/hScattered Clouds
9:15 AM9 °C-2 °C46 %1014.6 hPa16.1 kmWest (280°)16.7 km/hMostly Cloudy
10:15 AM12 °C1 °C47 %1014.2 hPa16.1 kmWest (280°)13 km/hClear
10:35 AM13 °C0 °C41 %1014.2 hPa16.1 kmWNW (300°)18.5 km/h29.6 km/hScattered Clouds
10:55 AM13 °C0 °C41 %1014.2 hPa16.1 kmWNW (290°)20.4 km/h27.8 km/hMostly Cloudy
11:15 AM14 °C0 °C38 %1013.9 hPa16.1 kmWest (280°)13 km/hMostly Cloudy
11:35 AM13 °C0 °C41 %1013.9 hPa16.1 kmWest (280°)20.4 km/h29.6 km/hMostly Cloudy
11:55 AM13 °C-1 °C38 %1014.2 hPa16.1 kmNNW (340°)14.8 km/h33.3 km/hOvercast
12:15 PM13 °C-2 °C36 %1014.2 hPa16.1 kmNW (320°)24.1 km/h35.2 km/hOvercast
12:35 PM14 °C-1 °C36 %1014.2 hPa16.1 kmNW (320°)24.1 km/h37 km/hMostly Cloudy
12:55 PM13 °C-2 °C36 %1014.6 hPa16.1 kmWNW (300°)25.9 km/h38.9 km/hMostly Cloudy
1:15 PM14 °C-1 °C36 %1014.2 hPa16.1 kmNNW (340°)25.9 km/h38.9 km/hOvercast
1:35 PM14 °C-2 °C33 %1014.6 hPa16.1 kmNNW (330°)29.6 km/h40.7 km/hMostly Cloudy
1:55 PM13 °C-2 °C36 %1014.6 hPa16.1 kmNNW (330°)27.8 km/h44.4 km/hMostly Cloudy
2:15 PM14 °C-1 °C36 %1014.6 hPa16.1 kmNNW (330°)22.2 km/h38.9 km/hOvercast
2:35 PM14 °C0 °C38 %1014.6 hPa16.1 kmNNW (340°)24.1 km/h33.3 km/hMostly Cloudy
2:55 PM13 °C0 °C41 %1014.6 hPa16.1 kmNNW (330°)29.6 km/h38.9 km/hPartly Cloudy
3:15 PM14 °C-1 °C36 %1014.6 hPa16.1 kmNW (320°)24.1 km/h38.9 km/hClear
3:35 PM14 °C-2 °C33 %1014.6 hPa16.1 kmNW (320°)31.5 km/h44.4 km/hPartly Cloudy
3:55 PM15 °C-2 °C31 %1014.2 hPa16.1 kmWNW (290°)24.1 km/h40.7 km/hScattered Clouds
4:15 PM15 °C-2 °C31 %1014.6 hPa16.1 kmNW (310°)16.7 km/h44.4 km/hScattered Clouds
4:35 PM15 °C-3 °C29 %1014.2 hPa16.1 kmNW (320°)22.2 km/h46.3 km/hMostly Cloudy
4:55 PM14 °C-4 °C29 %1014.6 hPa16.1 kmNW (310°)27.8 km/h44.4 km/hScattered Clouds
5:15 PM15 °C-2 °C31 %1014.6 hPa16.1 kmNW (310°)24.1 km/h33.3 km/hScattered Clouds
5:35 PM14 °C-3 °C31 %1014.9 hPa16.1 kmNW (320°)25.9 km/h37 km/hPartly Cloudy
5:55 PM14 °C-3 °C31 %1015.2 hPa16.1 kmNNW (330°)27.8 km/h37 km/hClear
6:15 PM14 °C-3 °C31 %1015.2 hPa16.1 kmNNW (330°)22.2 km/h35.2 km/hClear
6:35 PM13 °C-3 °C33 %1015.6 hPa16.1 kmNW (320°)20.4 km/h31.5 km/hClear
6:55 PM13 °C-4 °C31 %1015.9 hPa16.1 kmNNW (340°)29.6 km/h38.9 km/hClear
7:15 PM13 °C-4 °C31 %1016.3 hPa16.1 kmNNW (330°)18.5 km/hClear
7:35 PM12 °C-4 °C33 %1016.6 hPa16.1 kmNNW (330°)22.2 km/h27.8 km/hClear
7:55 PM12 °C-4 °C33 %1016.9 hPa16.1 kmNW (320°)20.4 km/h27.8 km/hClear
8:15 PM11 °C-4 °C35 %1017.3 hPa16.1 kmNNW (330°)13 km/h31.5 km/hClear
8:35 PM10 °C-3 °C40 %1017.6 hPa16.1 kmNNW (340°)13 km/hClear
8:55 PM10 °C-3 °C40 %1017.9 hPa16.1 kmNNW (330°)18.5 km/hClear
9:15 PM9 °C-3 °C43 %1018.3 hPa16.1 kmNNW (330°)16.7 km/hClear
9:35 PM9 °C-3 °C43 %1018.6 hPa16.1 kmNNW (340°)18.5 km/hClear
9:55 PM8 °C-2 °C50 %1019 hPa16.1 kmNorth (360°)11.1 km/hClear
10:15 PM8 °C-2 °C50 %1019 hPa16.1 kmNorth (360°)9.3 km/hClear
10:35 PM7 °C-2 °C53 %1019 hPa16.1 kmNorth (350°)14.8 km/hClear
10:55 PM7 °C-2 °C53 %1019.3 hPa16.1 kmNNW (340°)13 km/hClear
11:15 PM7 °C-3 °C49 %1019.3 hPa16.1 kmNNW (340°)7.4 km/hClear
11:35 PM7 °C-3 °C49 %1019.6 hPa16.1 kmNNW (330°)11.1 km/hClear
11:55 PM7 °C-3 °C49 %1019.6 hPa16.1 kmNNW (330°)14.8 km/hClear
Hourly data recorded from KMSV, located 0 kilometers away from Rock Hill, New York







STORIES FROM OUR PARTNERS